Time,TemperatureF,DewpointF,PressureIn,WindDirection,WindDirectionDegrees,WindSpeedMPH,WindSpeedGustMPH,Humidity,HourlyPrecipIn,Conditions,Clouds,dailyrainin,SoftwareType,DateUTC
2013-04-03 00:00:00,57.8,40.3,29.97,WSW,249,0.0,0.0,52,0.00,,---,0.00,VWS V13.01,2013-04-03 07:00:00,
2013-04-03 00:30:00,57.1,40.2,29.96,SSW,204,0.0,0.0,53,0.00,,---,0.00,VWS V13.01,2013-04-03 07:30:00,
2013-04-03 01:00:00,55.4,40.0,29.97,SE,127,0.0,0.0,56,0.00,,---,0.00,VWS V13.01,2013-04-03 08:00:00,
2013-04-03 01:30:00,55.0,39.6,29.96,SSW,210,0.0,0.0,56,0.00,,---,0.00,VWS V13.01,2013-04-03 08:30:00,
2013-04-03 02:00:00,55.6,39.1,29.96,SSE,163,0.0,0.0,54,0.00,,---,0.00,VWS V13.01,2013-04-03 09:00:00,
2013-04-03 02:30:00,54.5,39.6,29.96,SW,222,0.0,0.0,57,0.00,,---,0.00,VWS V13.01,2013-04-03 09:30:00,
2013-04-03 03:00:00,55.6,39.2,29.95,SW,215,0.0,0.0,54,0.00,,---,0.00,VWS V13.01,2013-04-03 10:00:00,
2013-04-03 03:30:00,56.2,38.8,29.95,WSW,238,0.0,0.0,52,0.00,,---,0.00,VWS V13.01,2013-04-03 10:30:00,
2013-04-03 04:00:00,55.0,38.2,29.96,SSW,192,0.0,0.0,53,0.00,,---,0.00,VWS V13.01,2013-04-03 11:00:00,
2013-04-03 04:30:00,53.5,36.8,29.98,SW,220,0.0,0.0,53,0.00,,---,0.00,VWS V13.01,2013-04-03 11:30:00,
2013-04-03 05:00:00,48.6,36.2,29.98,SW,220,0.0,0.0,62,0.00,,---,0.00,VWS V13.01,2013-04-03 12:00:00,
2013-04-03 05:30:00,47.8,36.6,29.96,SW,220,0.0,0.0,65,0.00,,---,0.00,VWS V13.01,2013-04-03 12:30:00,
2013-04-03 06:00:00,46.8,36.4,29.96,SW,220,0.0,1.0,67,0.00,,---,0.00,VWS V13.01,2013-04-03 13:00:00,
2013-04-03 06:30:00,47.8,37.0,29.98,SW,217,0.0,5.0,66,0.00,,---,0.00,VWS V13.01,2013-04-03 13:30:00,
2013-04-03 07:00:00,48.1,36.9,30.00,SW,217,0.0,2.0,65,0.00,,---,0.00,VWS V13.01,2013-04-03 14:00:00,
2013-04-03 07:30:00,47.5,34.7,30.02,SW,217,0.0,3.0,61,0.00,,---,0.00,VWS V13.01,2013-04-03 14:30:00,
2013-04-03 08:00:00,50.5,37.2,30.02,SW,217,0.0,3.0,60,0.00,,---,0.00,VWS V13.01,2013-04-03 15:00:00,
2013-04-03 08:30:00,54.2,37.9,30.01,SW,217,0.0,4.0,54,0.00,,---,0.00,VWS V13.01,2013-04-03 15:30:00,
2013-04-03 09:00:00,57.8,37.7,30.02,SW,217,0.0,2.0,47,0.00,,---,0.00,VWS V13.01,2013-04-03 16:00:00,
2013-04-03 10:00:00,64.1,38.7,30.01,SSE,165,1.0,4.0,39,0.00,,---,0.00,VWS V13.01,2013-04-03 17:00:00,
2013-04-03 10:30:00,67.3,37.2,30.01,ENE,73,3.0,5.0,33,0.00,,---,0.00,VWS V13.01,2013-04-03 17:30:00,
2013-04-03 11:00:00,70.1,38.1,30.01,ENE,70,0.0,5.0,31,0.00,,---,0.00,VWS V13.01,2013-04-03 18:00:00,
2013-04-03 11:30:00,71.8,37.0,30.00,ENE,69,2.0,7.0,28,0.00,,---,0.00,VWS V13.01,2013-04-03 18:30:00,
2013-04-03 12:00:00,72.5,36.7,30.01,North,0,0.0,7.0,27,0.00,,---,0.00,VWS V13.01,2013-04-03 19:00:00,
2013-04-03 12:30:00,75.1,38.9,30.00,North,358,0.0,6.0,27,0.00,,---,0.00,VWS V13.01,2013-04-03 19:30:00,
2013-04-03 13:00:00,77.2,37.7,29.98,North,3,5.0,13.0,24,0.00,,---,0.00,VWS V13.01,2013-04-03 20:00:00,
2013-04-03 13:30:00,78.8,35.6,29.96,NNE,31,5.0,8.0,21,0.00,,---,0.00,VWS V13.01,2013-04-03 20:30:00,
2013-04-03 14:00:00,79.4,33.5,29.96,ENE,67,2.0,9.0,19,0.00,,---,0.00,VWS V13.01,2013-04-03 21:00:00,
2013-04-03 14:30:00,80.5,31.7,29.96,North,10,4.0,13.0,17,0.00,,---,0.00,VWS V13.01,2013-04-03 21:30:00,
2013-04-03 15:00:00,80.9,32.0,29.94,SSE,150,3.0,7.0,17,0.00,,---,0.00,VWS V13.01,2013-04-03 22:00:00,
2013-04-03 15:30:00,82.1,31.5,29.93,North,0,0.0,6.0,16,0.00,,---,0.00,VWS V13.01,2013-04-03 22:30:00,
2013-04-03 16:00:00,81.6,31.1,29.93,NE,55,1.0,8.0,16,0.00,,---,0.00,VWS V13.01,2013-04-03 23:00:00,
2013-04-03 16:30:00,82.2,30.0,29.92,West,260,0.0,8.0,15,0.00,,---,0.00,VWS V13.01,2013-04-03 23:30:00,
2013-04-03 17:00:00,81.9,29.8,29.91,ESE,120,0.0,6.0,15,0.00,,---,0.00,VWS V13.01,2013-04-04 00:00:00,
2013-04-03 17:30:00,81.6,29.5,29.91,SSE,155,6.0,7.0,15,0.00,,---,0.00,VWS V13.01,2013-04-04 00:30:00,
2013-04-03 18:00:00,80.6,34.7,29.90,South,171,8.0,14.0,19,0.00,,---,0.00,VWS V13.01,2013-04-04 01:00:00,
2013-04-03 18:30:00,76.9,34.0,29.91,SSE,148,11.0,17.0,21,0.00,,---,0.00,VWS V13.01,2013-04-04 01:30:00,
2013-04-03 19:00:00,74.9,32.4,29.91,SSE,165,7.0,18.0,21,0.00,,---,0.00,VWS V13.01,2013-04-04 02:00:00,
2013-04-03 19:30:00,72.9,30.7,29.92,WSW,251,8.0,14.0,21,0.00,,---,0.00,VWS V13.01,2013-04-04 02:30:00,
2013-04-03 20:00:00,71.2,32.6,29.96,WSW,243,6.0,11.0,24,0.00,,---,0.00,VWS V13.01,2013-04-04 03:00:00,
2013-04-03 20:30:00,70.1,35.5,29.92,SSW,195,5.0,10.0,28,0.00,,---,0.00,VWS V13.01,2013-04-04 03:30:00,
2013-04-03 21:00:00,69.1,38.0,29.94,South,170,10.0,10.0,32,0.00,,---,0.00,VWS V13.01,2013-04-04 04:00:00,
2013-04-03 21:30:00,67.9,37.8,29.95,South,179,0.0,10.0,33,0.00,,---,0.00,VWS V13.01,2013-04-04 04:30:00,
2013-04-03 22:00:00,65.5,35.7,29.95,South,186,0.0,0.0,33,0.00,,---,0.00,VWS V13.01,2013-04-04 05:00:00,
2013-04-03 22:30:00,64.1,34.4,29.96,SSW,197,0.0,0.0,33,0.00,,---,0.00,VWS V13.01,2013-04-04 05:30:00,
2013-04-03 23:00:00,63.0,35.7,29.97,SW,225,0.0,0.0,36,0.00,,---,0.00,VWS V13.01,2013-04-04 06:00:00,
2013-04-03 23:30:00,61.9,36.0,29.94,SSW,202,0.0,0.0,38,0.00,,---,0.00,VWS V13.01,2013-04-04 06:30:00,